User: anonymous   Login
Location: Lecco
(45.8566°N, 9.3977°E)
Time: 01:32:21
(UTC+02:00)
Language:

Transit 2A - Orbit

View from above orbital plane
View from above orbital plane
View from above satellite
View from above satellite

Ground track
Ground track

The orbit data is extracted from the following two-line orbital elements,

1    45U 60007A   20217.51041877 -.00000047  00000-0  15518-4 0  9993
2    45  66.6929 254.2670 0262877 280.3333  76.8232 14.33683358129597
Epoch (UTC): 04 August 2020 12:15:00
Eccentricity: 0.0262877
inclination: 66.6929°
perigee height: 591 km
apogee height: 967 km
right ascension of ascending node: 254.2670°
argument of perigee: 280.3333°
revolutions per day: 14.33683358
mean anomaly at epoch: 76.8232°
orbit number at epoch: 12959

The dashed part of the orbit path shows where the satellite is in the earth's shadow,  

DLR